Erie, CO

10:39 AM MDT on March 23, 2017 (GMT -0600)
Erie Municipal Airport

Weather History for KEIK - June, 2014

Change the Weather History Date:

Tuesday, June 10, 2014

  Actual Average (KBJC) Record (KBJC)
Temperature  
Mean Temperature 64 °F -  
Max Temperature 86 °F 75 °F 95 °F (2013)
Min Temperature 41 °F 51 °F 45 °F (1986)
Degree Days  
Heating Degree Days 2    
Growing Degree Days 14 (Base 50)    
Moisture  
Dew Point 37 °F    
Average Humidity 47    
Maximum Humidity 95    
Minimum Humidity 13    
Precipitation  
Precipitation 0.00 in - - ()
Sea Level Pressure  
Sea Level Pressure 29.95 in    
Wind  
Wind Speed 3 mph (SSW)    
Max Wind Speed 18 mph    
Max Gust Speed 41 mph    
Visibility 10 miles    
Events      
Averages and records for this station are not official NWS values.
T = Trace of Precipitation, MM = Missing Value Source: NWS Daily Summary

Daily Weather History Graph

Daily Weather History Graph

Search for Another Location

Airport or City:

Trip Planner

Search our weather history database for the weather conditions in past years. The results will help you decide how hot, cold, wet, or windy it might be!

Date:

Astronomy

Jun. 10, 2014 Rise Set
Actual Time 5:30 AM MDT 8:28 PM MDT
Civil Twilight 4:58 AM MDT 9:01 PM MDT
Nautical Twilight 4:16 AM MDT 9:42 PM MDT
Astronomical Twilight 3:29 AM MDT 10:30 PM MDT
Moon 5:56 PM MDT (6/10) 3:38 AM MDT (6/10)
Length of Visible Light 16h 02m
Length of Day
14h 57m
Waxing Gibbous, 92% of the Moon is Illuminated
Jun 10
Waxing Gibbous
Jun 12
Full
Jun 19
Last Quarter
Jun 27
New
Jul 5
First Quarter

Hourly Weather History & Observations

Time (MDT) Temp. Windchill Dew Point Humidity Pressure Visibility Wind Dir Wind Speed Gust Speed Precip Events Conditions
12:16 AM 47.5 °F - 42.6 °F 83% 30.05 in 10.0 mi Calm Calm - N/A   Clear
12:36 AM 46.2 °F - 42.8 °F 88% 30.05 in 10.0 mi Calm Calm - N/A   Clear
12:56 AM 46.6 °F - 41.7 °F 83% 30.04 in 10.0 mi South 3.5 mph - N/A   Clear
1:16 AM 47.8 °F - 42.6 °F 82% 30.03 in 10.0 mi Calm Calm - N/A   Clear
1:36 AM 46.8 °F - 41.7 °F 83% 30.02 in 10.0 mi SW 5.8 mph - N/A   Clear
1:56 AM 45.5 °F 44.2 °F 41.4 °F 85% 30.02 in 10.0 mi SSW 3.5 mph - N/A   Clear
2:16 AM 46.4 °F - 41.7 °F 84% 30.01 in 10.0 mi Calm Calm - N/A   Clear
2:36 AM 45.9 °F - 42.1 °F 87% 30.01 in 10.0 mi Calm Calm - N/A   Clear
2:56 AM 45.3 °F - 41.4 °F 86% 30.00 in 10.0 mi Calm Calm - N/A   Clear
3:16 AM 43.9 °F - 40.8 °F 89% 30.00 in 10.0 mi Calm Calm - N/A   Clear
3:36 AM 42.8 °F - 40.6 °F 92% 30.00 in 10.0 mi Calm Calm - N/A   Clear
3:56 AM 43.7 °F - 41.4 °F 91% 29.99 in 10.0 mi Calm Calm - N/A   Clear
4:16 AM 42.8 °F - 40.5 °F 91% 29.99 in 10.0 mi Calm Calm - N/A   Clear
4:36 AM 42.8 °F - 40.6 °F 92% 30.00 in 10.0 mi Calm Calm - N/A   Clear
4:56 AM 41.9 °F - 40.3 °F 94% 30.00 in 10.0 mi Calm Calm - N/A   Clear
5:16 AM 41.9 °F - 40.1 °F 93% 30.00 in 10.0 mi Calm Calm - N/A   Clear
5:36 AM 41.7 °F - 39.9 °F 93% 30.00 in 10.0 mi Calm Calm - N/A   Clear
5:56 AM 41.4 °F 39.4 °F 40.1 °F 95% 30.00 in 10.0 mi SSW 3.5 mph - N/A   Clear
6:16 AM 43.7 °F - 41.9 °F 93% 30.00 in 10.0 mi Calm Calm - N/A   Clear
6:36 AM 46.2 °F - 43.7 °F 91% 30.00 in 10.0 mi Calm Calm - N/A   Clear
6:56 AM 48.9 °F - 44.8 °F 86% 30.00 in 10.0 mi SW 3.5 mph - N/A   Clear
7:16 AM 51.6 °F - 46.4 °F 82% 29.98 in 10.0 mi SW 6.9 mph - N/A   Clear
7:56 AM 60.1 °F - 46.6 °F 61% 29.99 in 10.0 mi North 3.5 mph - N/A   Clear
8:16 AM 60.8 °F - 48.0 °F 63% 29.99 in 10.0 mi Calm Calm - N/A   Clear
8:36 AM 62.6 °F - 47.5 °F 58% 29.99 in 10.0 mi NNE 6.9 mph - N/A   Clear
9:16 AM 70.2 °F - 46.0 °F 42% 29.99 in 10.0 mi Calm Calm - N/A   Clear
9:36 AM 73.4 °F - 43.2 °F 34% 29.98 in 10.0 mi Calm Calm - N/A   Clear
9:56 AM 76.6 °F - 37.0 °F 24% 29.98 in 10.0 mi South 5.8 mph - N/A   Clear
10:16 AM 78.3 °F - 32.2 °F 19% 29.97 in 10.0 mi SSE 4.6 mph - N/A   Clear
10:36 AM 80.1 °F - 30.6 °F 17% 29.97 in 10.0 mi SSW 3.5 mph - N/A   Clear
11:16 AM 82.0 °F - 27.0 °F 13% 29.96 in 10.0 mi SE 3.5 mph - N/A   Clear
11:36 AM 82.2 °F - 28.0 °F 14% 29.95 in 10.0 mi Calm Calm - N/A   Clear
11:56 AM 82.2 °F - 31.3 °F 16% 29.95 in 10.0 mi Calm Calm - N/A   Clear
12:16 PM 83.8 °F - 28.8 °F 14% 29.94 in 10.0 mi Calm Calm - N/A   Clear
12:36 PM 83.3 °F - 26.8 °F 13% 29.94 in 10.0 mi East 4.6 mph - N/A   Clear
1:16 PM 85.1 °F - 29.3 °F 13% 29.92 in 10.0 mi ENE 11.5 mph - N/A   Clear
1:36 PM 84.6 °F - 30.6 °F 14% 29.92 in 10.0 mi ENE 8.1 mph - N/A   Clear
1:56 PM 86.4 °F - 30.6 °F 13% 29.91 in 10.0 mi SE 12.7 mph 16.1 mph N/A   Clear
2:16 PM 85.5 °F - 29.1 °F 13% 29.91 in 10.0 mi Calm Calm - N/A   Clear
2:36 PM 83.7 °F - 29.7 °F 14% 29.91 in 10.0 mi ESE 4.6 mph - N/A   Clear
3:16 PM 81.0 °F - 34.2 °F 18% 29.93 in 10.0 mi NNW 10.4 mph - N/A   Scattered Clouds
3:36 PM 77.2 °F - 32.9 °F 20% 29.94 in 10.0 mi NNW 18.4 mph 29.9 mph N/A   Scattered Clouds
3:56 PM 77.4 °F - 35.2 °F 22% 29.93 in 10.0 mi North 12.7 mph 20.7 mph N/A   Scattered Clouds
4:16 PM 79.3 °F - 34.0 °F 19% 29.92 in 10.0 mi North 13.8 mph - N/A   Clear
4:36 PM 80.1 °F - 33.6 °F 19% 29.89 in 10.0 mi NNE 9.2 mph - N/A   Clear
4:56 PM 76.6 °F - 34.5 °F 22% 29.89 in 10.0 mi NNE 5.8 mph - N/A   Clear
5:16 PM 77.9 °F - 36.1 °F 22% 29.88 in 10.0 mi North 4.6 mph - N/A   Clear
5:36 PM 77.9 °F - 37.0 °F 23% 29.88 in 10.0 mi NNE 4.6 mph - N/A   Clear
5:56 PM 79.0 °F - 38.3 °F 23% 29.88 in 10.0 mi Calm Calm - N/A   Clear
6:16 PM 76.1 °F - 39.6 °F 27% 29.90 in 10.0 mi SSW 10.4 mph - N/A   Clear
6:36 PM 76.3 °F - 33.8 °F 21% 29.90 in 10.0 mi South 13.8 mph 18.4 mph N/A   Clear
6:56 PM 75.6 °F - 29.3 °F 18% 29.91 in 5.0 mi NNW 13.8 mph 41.4 mph N/A   Haze
7:16 PM 78.6 °F - 31.3 °F 18% 29.91 in 10.0 mi West 5.8 mph - N/A   Scattered Clouds
7:36 PM 78.1 °F - 36.0 °F 22% 29.89 in 10.0 mi WNW 4.6 mph - N/A   Clear
7:56 PM 73.8 °F - 34.2 °F 24% 29.89 in 10.0 mi SW 5.8 mph - N/A   Clear
8:16 PM 71.2 °F - 37.2 °F 29% 29.89 in 10.0 mi Calm Calm - N/A   Clear
8:36 PM 68.9 °F - 39.4 °F 34% 29.90 in 10.0 mi Calm Calm - N/A   Clear
9:16 PM 63.3 °F - 43.2 °F 48% 29.90 in 10.0 mi SSW 4.6 mph - N/A   Clear
9:36 PM 66.0 °F - 41.2 °F 40% 29.91 in 10.0 mi SSW 4.6 mph - N/A   Clear
9:56 PM 63.7 °F - 42.8 °F 47% 29.91 in 10.0 mi SSW 5.8 mph - N/A   Clear
10:16 PM 67.8 °F - 37.9 °F 33% 29.90 in 10.0 mi SSW 5.8 mph - N/A   Clear
10:36 PM 64.6 °F - 40.1 °F 41% 29.90 in 10.0 mi South 4.6 mph - N/A   Clear
10:56 PM 62.8 °F - 40.8 °F 45% 29.90 in 10.0 mi WSW 5.8 mph - N/A   Clear
11:16 PM 72.3 °F - 29.3 °F 20% 29.90 in 10.0 mi WSW 15.0 mph 21.9 mph N/A   Clear
11:36 PM 73.9 °F - 29.1 °F 19% 29.92 in 10.0 mi SSW 6.9 mph 17.3 mph N/A   Clear
11:56 PM 72.7 °F - 30.4 °F 21% 29.90 in 10.0 mi SW 8.1 mph 16.1 mph N/A   Clear